Weather History for KRYV - April, 2013

Change the Weather History Date:

Tuesday, April 23, 2013

  Actual Average Record
Temperature  
Mean Temperature 44 °F -  
Max Temperature 52 °F 59 °F 85 °F (1980)
Min Temperature 36 °F 39 °F 23 °F (2015)
Degree Days  
Heating Degree Days 21    
Moisture  
Dew Point 37 °F    
Average Humidity 79    
Maximum Humidity 91    
Minimum Humidity 54    
Precipitation  
Precipitation 0.17 in - - ()
Sea Level Pressure  
Sea Level Pressure 29.95 in    
Wind  
Wind Speed 8 mph (WNW)    
Max Wind Speed 14 mph    
Max Gust Speed 20 mph    
Visibility 10 miles    
Events Rain    
Averages and records for this station are not official NWS values.
T = Trace of Precipitation, MM = Missing Value Source: NWS Daily Summary

Daily Weather History Graph

Daily Weather History Graph

Search for Another Location

Airport or City:

Trip Planner

Search our weather history database for the weather conditions in past years. The results will help you decide how hot, cold, wet, or windy it might be!

Date:

Astronomy

Apr. 23, 2013 Rise Set
Actual Time 5:59 AM CDT 7:47 PM CDT
Civil Twilight 5:29 AM CDT 8:17 PM CDT
Nautical Twilight 4:52 AM CDT 8:54 PM CDT
Astronomical Twilight 4:12 AM CDT 9:34 PM CDT
Moon 5:39 PM CDT (4/23) 4:31 AM CDT (4/23)
Length of Visible Light 14h 48m
Length of Day
13h 47m
Waxing Gibbous, 94% of the Moon is Illuminated
Apr 23
Waxing Gibbous
Apr 25
Full
May 2
Last Quarter
May 9
New
May 17
First Quarter

Hourly Weather History & Observations

Time (CDT) Temp. Windchill Dew Point Humidity Pressure Visibility Wind Dir Wind Speed Gust Speed Precip Events Conditions
12:15 AM 51.8 °F - 35.6 °F 54% 30.00 in 10.0 mi SSE 9.2 mph - N/A   Scattered Clouds
12:35 AM 51.8 °F - 35.8 °F 54% 30.00 in 10.0 mi SSE 8.1 mph - N/A   Scattered Clouds
12:55 AM 52.0 °F - 37.2 °F 57% 29.99 in 10.0 mi South 5.8 mph - N/A Rain Light Rain
1:15 AM 52.3 °F - 37.2 °F 56% 29.98 in 10.0 mi South 5.8 mph - N/A   Overcast
1:35 AM 51.8 °F - 38.1 °F 60% 29.98 in 10.0 mi South 4.6 mph - N/A   Overcast
1:55 AM 51.6 °F - 38.8 °F 62% 29.98 in 10.0 mi South 11.5 mph 16.1 mph N/A   Light Drizzle
2:15 AM 52.3 °F - 41.7 °F 67% 29.96 in 10.0 mi South 10.4 mph - N/A   Overcast
2:35 AM 52.2 °F - 41.9 °F 68% 29.95 in 10.0 mi South 8.1 mph - N/A   Overcast
2:55 AM 51.3 °F - 41.2 °F 68% 29.94 in 10.0 mi SSE 6.9 mph - N/A   Overcast
3:15 AM 50.4 °F - 41.9 °F 73% 29.93 in 10.0 mi SSE 6.9 mph - N/A   Mostly Cloudy
3:35 AM 50.7 °F - 44.1 °F 78% 29.94 in 10.0 mi South 8.1 mph - N/A   Overcast
3:55 AM 50.0 °F - 44.8 °F 82% 29.93 in 10.0 mi South 6.9 mph - N/A   Light Drizzle
4:15 AM 49.3 °F - 45.5 °F 87% 29.91 in 10.0 mi South 5.8 mph - N/A   Light Drizzle
4:35 AM 49.1 °F - 45.7 °F 88% 29.91 in 10.0 mi South 5.8 mph - N/A   Overcast
4:55 AM 49.1 °F - 46.0 °F 89% 29.91 in 10.0 mi South 6.9 mph - N/A   Overcast
5:15 AM 48.9 °F - 46.0 °F 90% 29.90 in 10.0 mi South 6.9 mph - N/A   Overcast
5:35 AM 48.6 °F - 45.7 °F 90% 29.88 in 10.0 mi South 5.8 mph - N/A   Overcast
5:55 AM 48.6 °F - 46.0 °F 91% 29.91 in 10.0 mi SSW 6.9 mph - N/A   Overcast
6:15 AM 49.1 °F - 46.4 °F 90% 29.92 in 10.0 mi SSW 8.1 mph - N/A   Overcast
6:35 AM 49.1 °F - 46.4 °F 90% 29.91 in 10.0 mi SSW 6.9 mph - N/A   Overcast
6:55 AM 49.1 °F - 46.4 °F 90% 29.91 in 10.0 mi SSW 6.9 mph - N/A   Overcast
7:15 AM 49.5 °F - 46.8 °F 90% 29.91 in 10.0 mi SW 6.9 mph - N/A   Overcast
7:35 AM 50.0 °F - 46.8 °F 89% 29.91 in 10.0 mi WSW 6.9 mph - N/A   Overcast
7:55 AM 50.4 °F - 46.6 °F 87% 29.90 in 10.0 mi WSW 6.9 mph - N/A   Overcast
8:55 AM 44.8 °F 38.7 °F 41.0 °F 87% 29.93 in 10.0 mi WNW 12.7 mph 18.4 mph N/A   Overcast
9:15 AM 44.6 °F 38.8 °F 40.6 °F 86% 29.93 in 10.0 mi WNW 11.5 mph - N/A   Overcast
9:35 AM 43.7 °F 37.3 °F 38.7 °F 82% 29.92 in 10.0 mi NW 12.7 mph - N/A   Overcast
9:55 AM 41.9 °F 34.6 °F 36.5 °F 81% 29.94 in 10.0 mi NW 13.8 mph - N/A   Overcast
10:15 AM 41.0 °F 33.5 °F 35.4 °F 81% 29.96 in 10.0 mi NW 13.8 mph 19.6 mph N/A   Overcast
10:35 AM 39.4 °F 31.8 °F 33.4 °F 79% 29.97 in 10.0 mi NW 12.7 mph 17.3 mph N/A   Overcast
10:55 AM 39.2 °F 33.0 °F 34.5 °F 83% 29.98 in 10.0 mi NW 9.2 mph - N/A   Light Drizzle
11:15 AM 38.8 °F 32.6 °F 34.9 °F 86% 29.98 in 10.0 mi NW 9.2 mph - N/A Rain Light Rain
11:35 AM 38.7 °F 32.4 °F 34.7 °F 86% 29.96 in 10.0 mi NW 9.2 mph - N/A   Light Drizzle
11:55 AM 38.8 °F 32.1 °F 34.9 °F 86% 29.96 in 10.0 mi NW 10.4 mph - N/A   Light Drizzle
12:15 PM 38.5 °F 32.1 °F 34.5 °F 86% 29.96 in 10.0 mi NW 9.2 mph - N/A Rain Rain
12:35 PM 38.1 °F 31.2 °F 34.9 °F 88% 29.96 in 10.0 mi NW 10.4 mph - 0.01 in Rain Rain
12:55 PM 37.6 °F 31.0 °F 34.7 °F 89% 29.96 in 7.0 mi WNW 9.2 mph - 0.02 in Rain Light Rain
1:15 PM 37.0 °F 31.6 °F 34.0 °F 89% 29.96 in 4.0 mi NW 6.9 mph - 0.02 in Rain Rain
1:35 PM 36.9 °F 31.4 °F 34.5 °F 91% 29.95 in 5.0 mi NW 6.9 mph - 0.05 in Rain Light Rain
1:55 PM 37.0 °F 31.6 °F 34.0 °F 89% 29.96 in 5.0 mi NW 6.9 mph - 0.08 in Rain Rain
2:15 PM 36.5 °F 31.0 °F 33.8 °F 90% 29.96 in 7.0 mi NW 6.9 mph - 0.03 in Rain Light Rain
2:35 PM 37.4 °F 32.1 °F 34.3 °F 89% 29.96 in 7.0 mi NW 6.9 mph - 0.04 in Rain Light Rain
2:55 PM 36.9 °F 30.1 °F 34.0 °F 89% 29.94 in 5.0 mi NW 9.2 mph - 0.06 in Rain Rain
3:15 PM 37.6 °F 31.0 °F 34.3 °F 88% 29.95 in 10.0 mi NNW 9.2 mph - N/A Rain Light Rain
3:35 PM 38.3 °F 31.4 °F 33.6 °F 83% 29.95 in 10.0 mi NW 10.4 mph - 0.01 in Rain Light Rain
3:55 PM 38.3 °F 31.9 °F 33.8 °F 84% 29.95 in 10.0 mi NNW 9.2 mph - 0.01 in Rain Light Rain
4:15 PM 38.5 °F 31.6 °F 33.8 °F 83% 29.95 in 10.0 mi NNW 10.4 mph - N/A Rain Light Rain
4:35 PM 39.6 °F 33.0 °F 34.7 °F 83% 29.94 in 10.0 mi NNW 10.4 mph 16.1 mph N/A   Light Drizzle
4:55 PM 39.6 °F 33.5 °F 33.4 °F 79% 29.94 in 10.0 mi NNW 9.2 mph - N/A   Overcast
5:15 PM 40.1 °F 35.3 °F 33.4 °F 77% 29.94 in 10.0 mi NNW 6.9 mph - N/A   Overcast
5:35 PM 40.3 °F 35.5 °F 33.3 °F 76% 29.94 in 10.0 mi NNW 6.9 mph - N/A   Overcast
5:55 PM 40.1 °F 33.6 °F 33.1 °F 76% 29.94 in 10.0 mi NNW 10.4 mph - N/A   Overcast
6:55 PM 39.7 °F 32.7 °F 32.0 °F 74% 29.94 in 10.0 mi NNW 11.5 mph - N/A   Overcast
7:15 PM 39.4 °F 33.2 °F 32.0 °F 75% 29.95 in 10.0 mi NW 9.2 mph - N/A   Overcast
7:35 PM 39.2 °F 33.0 °F 32.0 °F 75% 29.95 in 10.0 mi NNW 9.2 mph - N/A   Overcast
7:55 PM 39.2 °F 33.6 °F 31.8 °F 75% 29.96 in 10.0 mi NNW 8.1 mph - N/A   Overcast
8:15 PM 38.8 °F 33.8 °F 32.0 °F 76% 29.97 in 10.0 mi NNW 6.9 mph - N/A   Overcast
8:35 PM 39.0 °F 32.8 °F 31.5 °F 74% 29.97 in 10.0 mi NNW 9.2 mph - N/A   Overcast
8:55 PM 38.8 °F 32.6 °F 31.1 °F 74% 29.98 in 10.0 mi North 9.2 mph - N/A   Overcast
9:15 PM 38.7 °F 32.9 °F 31.1 °F 74% 29.97 in 10.0 mi North 8.1 mph - N/A   Overcast
9:35 PM 38.5 °F 32.7 °F 30.6 °F 73% 29.98 in 10.0 mi North 8.1 mph - N/A   Overcast
9:55 PM 38.3 °F 33.2 °F 30.9 °F 75% 29.97 in 10.0 mi NNW 6.9 mph - N/A   Overcast
10:35 PM 37.9 °F 32.1 °F 30.2 °F 74% 29.97 in 10.0 mi NNW 8.1 mph - N/A   Overcast
10:55 PM 38.1 °F 31.7 °F 29.5 °F 71% 29.96 in 10.0 mi NNW 9.2 mph 16.1 mph N/A   Overcast
11:15 PM 37.8 °F 31.8 °F 30.0 °F 74% 29.96 in 10.0 mi North 8.1 mph - N/A   Overcast
11:35 PM 37.6 °F 30.5 °F 29.5 °F 73% 29.96 in 10.0 mi NNW 10.4 mph - N/A   Overcast
11:55 PM 37.0 °F 29.8 °F 29.1 °F 73% 29.97 in 10.0 mi NNW 10.4 mph - N/A   Overcast